Tracking 25707 objects as of 29-Jun-2022
HD Live streaming from Space Station
objects crossing your sky now

STARLINK-4072

Track STARLINK-4072 now!
10-day predictions
STARLINK-4072 is classified as:


NORAD ID: 52694
Int'l Code: 2022-053AQ
Perigee: 355.8 km
Apogee: 358.4 km
Inclination: 53.2 °
Period: 91.5 minutes
Semi major axis: 6728 km
RCS: Unknown
Launch date: May 18, 2022
Source: United States (US)
Launch site: AIR FORCE EASTERN TEST RANGE (AFETR)
aabbcc
Your satellite tracking list
Your tracking list is empty




NASA's NSSDC Master Catalog

Two Line Element Set (TLE):
1 52694U 22053AQ  22180.58334491  .00072179  00000-0  51561-3 0  9995
2 52694  53.2155  89.2215 0001950  18.5552 356.7493 15.73138985  1308
Source of the keplerian elements: AFSPC